Time,TemperatureF,DewpointF,PressureIn,WindDirection,WindDirectionDegrees,WindSpeedMPH,WindSpeedGustMPH,Humidity,HourlyPrecipIn,Conditions,Clouds,dailyrainin,SolarRadiationWatts/m^2,SoftwareType,DateUTC
2013-04-23 00:02:00,31.0,30.0,-100.00,NE,54,5.0,8.0,96,0.00,,,0.16,1.000000,,2013-04-23 05:02:00,
2013-04-23 00:12:00,31.0,30.0,-100.00,NE,54,5.0,8.0,96,0.00,,,0.16,1.000000,,2013-04-23 05:12:00,
2013-04-23 00:22:00,31.0,30.0,-100.00,NE,54,5.0,8.0,96,0.00,,,0.16,1.000000,,2013-04-23 05:22:00,
2013-04-23 00:32:00,31.0,30.0,-100.00,NE,54,5.0,8.0,96,0.00,,,0.16,1.000000,,2013-04-23 05:32:00,
2013-04-23 01:02:00,31.0,30.0,-100.00,NE,50,7.0,12.0,95,0.00,,,0.16,1.000000,,2013-04-23 06:02:00,
2013-04-23 01:12:00,31.0,30.0,-100.00,NE,50,7.0,12.0,95,0.00,,,0.16,1.000000,,2013-04-23 06:12:00,
2013-04-23 01:21:00,31.0,30.0,-100.00,NE,50,7.0,12.0,95,0.00,,,0.16,1.000000,,2013-04-23 06:21:00,
2013-04-23 01:33:00,31.0,30.0,-100.00,NE,50,7.0,12.0,95,0.00,,,0.16,1.000000,,2013-04-23 06:33:00,
2013-04-23 02:02:00,30.0,29.0,-100.00,ENE,62,5.0,10.0,95,0.00,,,0.16,1.000000,,2013-04-23 07:02:00,
2013-04-23 02:11:00,30.0,29.0,-100.00,ENE,62,5.0,10.0,95,0.00,,,0.16,1.000000,,2013-04-23 07:11:00,
2013-04-23 02:21:00,30.0,29.0,-100.00,ENE,62,5.0,10.0,95,0.00,,,0.16,1.000000,,2013-04-23 07:21:00,
2013-04-23 02:32:00,30.0,29.0,-100.00,ENE,62,5.0,10.0,95,0.00,,,0.16,1.000000,,2013-04-23 07:32:00,
2013-04-23 03:02:00,30.0,29.0,-100.00,NE,44,5.0,9.0,96,0.00,,,0.12,1.000000,,2013-04-23 08:02:00,
2013-04-23 03:11:00,30.0,29.0,-100.00,NE,44,5.0,9.0,96,0.00,,,0.12,1.000000,,2013-04-23 08:11:00,
2013-04-23 03:21:00,30.0,29.0,-100.00,NE,44,5.0,9.0,96,0.00,,,0.12,1.000000,,2013-04-23 08:21:00,
2013-04-23 03:32:00,30.0,29.0,-100.00,NE,44,5.0,9.0,96,0.00,,,0.12,1.000000,,2013-04-23 08:32:00,
2013-04-23 04:02:00,30.0,29.0,-100.00,NNE,27,5.0,10.0,95,0.00,,,0.11,1.000000,,2013-04-23 09:02:00,
2013-04-23 04:11:00,30.0,29.0,-100.00,NNE,27,5.0,10.0,95,0.00,,,0.11,1.000000,,2013-04-23 09:11:00,
2013-04-23 04:21:00,30.0,29.0,-100.00,NNE,27,5.0,10.0,95,0.00,,,0.11,1.000000,,2013-04-23 09:21:00,
2013-04-23 04:33:00,30.0,29.0,-100.00,NNE,27,5.0,10.0,95,0.00,,,0.11,1.000000,,2013-04-23 09:33:00,
2013-04-23 05:02:00,29.0,28.0,-100.00,NNE,17,4.0,8.0,96,0.00,,,0.11,1.000000,,2013-04-23 10:02:00,
2013-04-23 05:13:00,29.0,28.0,-100.00,NNE,17,4.0,8.0,96,0.00,,,0.11,1.000000,,2013-04-23 10:13:00,
2013-04-23 05:22:00,29.0,28.0,-100.00,NNE,17,4.0,8.0,96,0.00,,,0.11,1.000000,,2013-04-23 10:22:00,
2013-04-23 05:33:00,29.0,28.0,-100.00,NNE,17,4.0,8.0,96,0.00,,,0.11,1.000000,,2013-04-23 10:33:00,
2013-04-23 06:03:00,29.0,28.0,-100.00,NNE,15,6.0,12.0,96,0.00,,,0.10,1.000000,,2013-04-23 11:03:00,
2013-04-23 06:12:00,29.0,28.0,-100.00,NNE,15,6.0,12.0,96,0.00,,,0.10,1.000000,,2013-04-23 11:12:00,
2013-04-23 06:21:00,29.0,28.0,-100.00,NNE,15,6.0,12.0,96,0.00,,,0.10,1.000000,,2013-04-23 11:21:00,
2013-04-23 06:32:00,29.0,28.0,-100.00,NNE,15,6.0,12.0,96,0.00,,,0.10,1.000000,,2013-04-23 11:32:00,
2013-04-23 07:02:00,30.0,29.0,-100.00,NNE,22,6.0,10.0,95,0.00,,,0.10,5.000000,,2013-04-23 12:02:00,
2013-04-23 07:12:00,30.0,29.0,-100.00,NNE,22,6.0,10.0,95,0.00,,,0.10,5.000000,,2013-04-23 12:12:00,
2013-04-23 07:22:00,30.0,29.0,-100.00,NNE,22,6.0,10.0,95,0.00,,,0.10,5.000000,,2013-04-23 12:22:00,
2013-04-23 07:32:00,30.0,29.0,-100.00,NNE,22,6.0,10.0,95,0.00,,,0.10,5.000000,,2013-04-23 12:32:00,
2013-04-23 08:01:00,30.0,29.0,-100.00,NNE,16,6.0,11.0,95,0.00,,,0.09,25.000000,,2013-04-23 13:01:00,
2013-04-23 08:11:00,30.0,29.0,-100.00,NNE,16,6.0,11.0,95,0.00,,,0.09,25.000000,,2013-04-23 13:11:00,
2013-04-23 08:21:00,30.0,29.0,-100.00,NNE,16,6.0,11.0,95,0.00,,,0.09,25.000000,,2013-04-23 13:21:00,
2013-04-23 08:32:00,30.0,29.0,-100.00,NNE,16,6.0,11.0,95,0.00,,,0.09,25.000000,,2013-04-23 13:32:00,
2013-04-23 09:02:00,30.0,28.0,-100.00,North,360,7.0,12.0,92,0.00,,,0.09,57.000000,,2013-04-23 14:02:00,
2013-04-23 09:11:00,30.0,28.0,-100.00,North,360,7.0,12.0,92,0.00,,,0.09,57.000000,,2013-04-23 14:11:00,
2013-04-23 09:22:00,30.0,28.0,-100.00,North,360,7.0,12.0,92,0.00,,,0.09,57.000000,,2013-04-23 14:22:00,
2013-04-23 09:32:00,30.0,28.0,-100.00,North,360,7.0,12.0,92,0.00,,,0.09,57.000000,,2013-04-23 14:32:00,
2013-04-23 10:01:00,33.0,29.0,-100.00,North,8,8.0,15.0,86,0.00,,,0.09,184.000000,,2013-04-23 15:01:00,
2013-04-23 10:12:00,33.0,29.0,-100.00,North,8,8.0,15.0,86,0.00,,,0.09,184.000000,,2013-04-23 15:12:00,
2013-04-23 10:21:00,33.0,29.0,-100.00,North,8,8.0,15.0,86,0.00,,,0.09,184.000000,,2013-04-23 15:21:00,
2013-04-23 10:32:00,33.0,29.0,-100.00,North,8,8.0,15.0,86,0.00,,,0.09,184.000000,,2013-04-23 15:32:00,
2013-04-23 11:03:00,33.0,29.0,-100.00,North,360,9.0,18.0,85,0.00,,,0.09,337.000000,,2013-04-23 16:03:00,
2013-04-23 11:12:00,33.0,29.0,-100.00,North,360,9.0,18.0,85,0.00,,,0.09,337.000000,,2013-04-23 16:12:00,
2013-04-23 11:23:00,33.0,29.0,-100.00,North,360,9.0,18.0,85,0.00,,,0.09,337.000000,,2013-04-23 16:23:00,
2013-04-23 11:34:00,33.0,29.0,-100.00,North,360,9.0,18.0,85,0.00,,,0.09,337.000000,,2013-04-23 16:34:00,
2013-04-23 12:02:00,33.0,28.0,-100.00,North,0,9.0,22.0,83,0.00,,,0.09,322.000000,,2013-04-23 17:02:00,
2013-04-23 12:12:00,33.0,28.0,-100.00,North,0,9.0,22.0,83,0.00,,,0.09,322.000000,,2013-04-23 17:12:00,
2013-04-23 12:22:00,33.0,28.0,-100.00,North,0,9.0,22.0,83,0.00,,,0.09,322.000000,,2013-04-23 17:22:00,
2013-04-23 12:32:00,33.0,28.0,-100.00,North,0,9.0,22.0,83,0.00,,,0.09,322.000000,,2013-04-23 17:32:00,
2013-04-23 13:02:00,32.0,28.0,-100.00,North,1,8.0,20.0,86,0.02,,,0.11,260.000000,,2013-04-23 18:02:00,
2013-04-23 13:12:00,32.0,28.0,-100.00,North,1,8.0,20.0,86,0.02,,,0.11,260.000000,,2013-04-23 18:12:00,
2013-04-23 13:22:00,32.0,28.0,-100.00,North,1,8.0,20.0,86,0.02,,,0.11,260.000000,,2013-04-23 18:22:00,
2013-04-23 13:32:00,32.0,28.0,-100.00,North,1,8.0,20.0,86,0.02,,,0.11,260.000000,,2013-04-23 18:32:00,
2013-04-23 14:02:00,31.0,27.0,-100.00,North,354,9.0,16.0,84,0.07,,,0.18,227.000000,,2013-04-23 19:02:00,
2013-04-23 14:11:00,31.0,27.0,-100.00,North,354,9.0,16.0,84,0.07,,,0.18,227.000000,,2013-04-23 19:11:00,
2013-04-23 14:22:00,31.0,27.0,-100.00,North,354,9.0,16.0,84,0.07,,,0.18,227.000000,,2013-04-23 19:22:00,
2013-04-23 14:32:00,31.0,27.0,-100.00,North,354,9.0,16.0,84,0.07,,,0.18,227.000000,,2013-04-23 19:32:00,
2013-04-23 15:02:00,32.0,27.0,-100.00,North,358,8.0,15.0,81,0.07,,,0.25,264.000000,,2013-04-23 20:02:00,
2013-04-23 15:11:00,32.0,27.0,-100.00,North,358,8.0,15.0,81,0.07,,,0.25,264.000000,,2013-04-23 20:11:00,
2013-04-23 15:22:00,32.0,27.0,-100.00,North,358,8.0,15.0,81,0.07,,,0.25,264.000000,,2013-04-23 20:22:00,
2013-04-23 15:32:00,32.0,27.0,-100.00,North,358,8.0,15.0,81,0.07,,,0.25,264.000000,,2013-04-23 20:32:00,
2013-04-23 16:02:00,32.0,27.0,-100.00,North,359,8.0,13.0,80,0.05,,,0.30,271.000000,,2013-04-23 21:02:00,
2013-04-23 16:12:00,32.0,27.0,-100.00,North,359,8.0,13.0,80,0.05,,,0.30,271.000000,,2013-04-23 21:12:00,
2013-04-23 16:21:00,32.0,27.0,-100.00,North,359,8.0,13.0,80,0.05,,,0.30,271.000000,,2013-04-23 21:21:00,
2013-04-23 16:33:00,32.0,27.0,-100.00,North,359,8.0,13.0,80,0.05,,,0.30,271.000000,,2013-04-23 21:33:00,
2013-04-23 17:03:00,33.0,25.0,-100.00,North,1,6.0,13.0,73,0.04,,,0.33,261.000000,,2013-04-23 22:03:00,
2013-04-23 17:12:00,33.0,25.0,-100.00,North,1,6.0,13.0,73,0.04,,,0.33,261.000000,,2013-04-23 22:12:00,
2013-04-23 17:22:00,33.0,25.0,-100.00,North,1,6.0,13.0,73,0.04,,,0.33,261.000000,,2013-04-23 22:22:00,
2013-04-23 17:33:00,33.0,25.0,-100.00,North,1,6.0,13.0,73,0.04,,,0.33,261.000000,,2013-04-23 22:33:00,
2013-04-23 18:03:00,33.0,25.0,-100.00,North,355,7.0,12.0,71,0.06,,,0.37,242.000000,,2013-04-23 23:03:00,
2013-04-23 18:12:00,33.0,25.0,-100.00,North,355,7.0,12.0,71,0.06,,,0.37,242.000000,,2013-04-23 23:12:00,
2013-04-23 18:22:00,33.0,25.0,-100.00,North,355,7.0,12.0,71,0.06,,,0.37,242.000000,,2013-04-23 23:22:00,
2013-04-23 18:32:00,33.0,25.0,-100.00,North,355,7.0,12.0,71,0.06,,,0.37,242.000000,,2013-04-23 23:32:00,
2013-04-23 19:01:00,32.0,23.0,-100.00,NNW,337,4.0,9.0,68,0.02,,,0.37,118.000000,,2013-04-24 00:01:00,
2013-04-23 19:11:00,32.0,23.0,-100.00,NNW,337,4.0,9.0,68,0.02,,,0.37,118.000000,,2013-04-24 00:11:00,
2013-04-23 19:22:00,32.0,23.0,-100.00,NNW,337,4.0,9.0,68,0.02,,,0.37,118.000000,,2013-04-24 00:22:00,
2013-04-23 19:32:00,32.0,23.0,-100.00,NNW,337,4.0,9.0,68,0.02,,,0.37,118.000000,,2013-04-24 00:32:00,
2013-04-23 20:02:00,30.0,22.0,-100.00,NNW,341,4.0,8.0,71,0.01,,,0.34,66.000000,,2013-04-24 01:02:00,
2013-04-23 20:11:00,30.0,22.0,-100.00,NNW,341,4.0,8.0,71,0.01,,,0.34,66.000000,,2013-04-24 01:11:00,
2013-04-23 20:21:00,30.0,22.0,-100.00,NNW,341,4.0,8.0,71,0.01,,,0.34,66.000000,,2013-04-24 01:21:00,
2013-04-23 20:32:00,30.0,22.0,-100.00,NNW,341,4.0,8.0,71,0.01,,,0.34,66.000000,,2013-04-24 01:32:00,
2013-04-23 20:37:00,25.0,23.0,-100.00,SSW,200,0.0,2.0,91,0.00,,,0.34,5.000000,,2013-04-24 01:37:00,
2013-04-23 21:02:00,25.0,23.0,-100.00,SSW,200,0.0,2.0,91,0.00,,,0.34,5.000000,,2013-04-24 02:02:00,
2013-04-23 21:18:00,25.0,23.0,-100.00,SSW,200,0.0,2.0,91,0.00,,,0.34,5.000000,,2013-04-24 02:18:00,
2013-04-23 21:29:00,25.0,23.0,-100.00,SSW,200,0.0,2.0,91,0.00,,,0.34,5.000000,,2013-04-24 02:29:00,
2013-04-23 22:09:00,22.0,20.0,-100.00,SSW,205,1.0,2.0,93,0.00,,,0.34,1.000000,,2013-04-24 03:09:00,
2013-04-23 22:29:00,22.0,20.0,-100.00,SSW,205,1.0,2.0,93,0.00,,,0.34,1.000000,,2013-04-24 03:29:00,
2013-04-23 23:03:00,19.0,17.0,-100.00,SW,216,0.0,0.0,92,0.00,,,0.34,1.000000,,2013-04-24 04:03:00,
2013-04-23 23:12:00,19.0,17.0,-100.00,SW,216,0.0,0.0,92,0.00,,,0.34,1.000000,,2013-04-24 04:12:00,
2013-04-23 23:23:00,19.0,17.0,-100.00,SW,216,0.0,0.0,92,0.00,,,0.34,1.000000,,2013-04-24 04:23:00,
2013-04-23 23:33:00,19.0,17.0,-100.00,SW,216,0.0,0.0,92,0.00,,,0.34,1.000000,,2013-04-24 04:33:00,